Regional Weather Roundup
Issued by NWS Spokane, WA

Home | Current Version | Previous Version | Text Only | Print | Product List | Glossary On
Versions: 1 2 3 4 5 6 7 8 9 10 11 12 13 14 15 16 17 18 19 20 21 22 23 24 25 26 27 28 29 30 31 32 33 34 35 36 37 38 39 40 41 42 43 44 45 46 47 48 49 50
000
NZUS01 KOTX 311110
RWROTX
EASTERN WASHINGTON/NORTHERN IDAHO ROUNDUP
NATIONAL WEATHER SERVICE, SPOKANE WA
400 AM PDT MON AUG 31 2015

Note: "fair" indicated few or no clouds below 12,000 feet with no
significant weather and/or obstructions to visibility.

...NORTHEAST WASHINGTON AND NORTHERN IDAHO PANHANDLE...

CITY           SKY/WX    TMP DP  RH WIND       PRES   REMARKS
SPOKANE INTL   MOCLDY    51  43  74 S9        30.00R
SPOKANE DOWNTO MOCLDY    54  44  69 S3        30.02R
COEUR D ALENE  MOCLDY    54  45  71 S7        30.02S
DEER PARK      MOCLDY    49  43  80 S8        30.00S
SANDPOINT      PTCLDY    52  45  76 SW5       30.00S
BONNERS FERRY  FAIR      50  45  81 S6        29.97S

...SOUTHEAST WASHINGTON AND SOUTHERN IDAHO PANHANDLE...

CITY           SKY/WX    TMP DP  RH WIND       PRES   REMARKS
WALLA WALLA    PTCLDY    58  45  62 S8        30.03F
PULLMAN/MOSCOW PTCLDY    49  41  74 CALM      30.07S
LEWISTON       CLOUDY    58  51  78 CALM      30.04S
LOWELL           N/A     53  51  93 CALM      30.10S

...COLUMBIA BASIN...

CITY           SKY/WX    TMP DP  RH WIND       PRES   REMARKS
EPHRATA        MOCLDY    55  44  66 SW6       29.94S
MOSES LAKE     MOCLDY    58  45  62 S9        29.97R
TRI CITIES     CLEAR     60  47  61 S7        30.00S
HERMISTON      PTCLDY    57  46  66 SW9       30.02S
PENDLETON      MOCLDY    52  43  71 SE7       30.05R

...EAST SLOPES CASCADES...

CITY           SKY/WX    TMP DP  RH WIND       PRES   REMARKS
THE DALLES     MOCLDY    62  48  60 W10       30.03S
YAKIMA         PTCLDY    50  42  74 W6        29.99R
ELLENSBURG     MOCLDY    55  43  63 NW6       29.98S
WENATCHEE      MOCLDY    60  40  47 NW5       29.93S
OMAK           CLOUDY    59  41  51 S8        29.90R

...SOUTHERN BRITISH COLUMBIA...

CITY           SKY/WX    TMP DP  RH WIND       PRES   REMARKS
PENTICTON      CLOUDY    63  43  48 S20G29    29.83R
CRANBROOK      MOCLDY    52  43  71 S16G23    29.91F

...WESTERN MONTANA...

CITY           SKY/WX    TMP DP  RH WIND       PRES   REMARKS
MISSOULA       CLOUDY    45  42  89 CALM      30.06F

...NEIGHBORING CITIES...

CITY           SKY/WX    TMP DP  RH WIND       PRES   REMARKS
SEATTLE        CLOUDY    62  48  60 S15       29.97F
CALGARY        MOCLDY    55  32  41 W5        29.67R



USA.gov is the U.S. government's official web portal to all federal, state and local government web resources and services.